Weather History for KBJC - March, 2013

Change the Weather History Date:

Saturday, March 30, 2013

  Actual Average Record
Temperature  
Mean Temperature 52 °F -  
Max Temperature 66 °F 53 °F 78 °F (1986)
Min Temperature 35 °F 32 °F 13 °F (1987)
Degree Days  
Heating Degree Days 14    
Growing Degree Days 2 (Base 50)    
Moisture  
Dew Point 27 °F    
Average Humidity 50    
Maximum Humidity 87    
Minimum Humidity 11    
Precipitation  
Precipitation 0.00 in - - ()
Sea Level Pressure  
Sea Level Pressure 30.13 in    
Wind  
Wind Speed 7 mph (WNW)    
Max Wind Speed 24 mph    
Max Gust Speed 31 mph    
Visibility 11 miles    
Events      
Averages and records for this station are not official NWS values.
T = Trace of Precipitation, MM = Missing Value Source: NWS Daily Summary

Daily Weather History Graph

Daily Weather History Graph

Search for Another Location

Airport or City:

Trip Planner

Search our weather history database for the weather conditions in past years. The results will help you decide how hot, cold, wet, or windy it might be!

Date:

Astronomy

Mar. 30, 2013 Rise Set
Actual Time 6:47 AM MDT 7:22 PM MDT
Civil Twilight 6:19 AM MDT 7:50 PM MDT
Nautical Twilight 5:47 AM MDT 8:22 PM MDT
Astronomical Twilight 5:14 AM MDT 8:55 PM MDT
Moon 11:32 PM MDT (3/30) 8:44 AM MDT (3/30)
Length of Visible Light 13h 30m
Length of Day
12h 35m
Waning Gibbous, 86% of the Moon is Illuminated
Mar 30
Waning Gibbous
Apr 2
Last Quarter
Apr 10
New
Apr 18
First Quarter
Apr 25
Full

Hourly Weather History & Observations

Time (MDT) Temp. Windchill Dew Point Humidity Pressure Visibility Wind Dir Wind Speed Gust Speed Precip Events Conditions
12:15 AM 42.8 °F 39.3 °F 28.4 °F 57% 30.14 in 10.0 mi West 5.8 mph - N/A   Clear
12:35 AM 44.6 °F 39.7 °F 28.4 °F 53% 30.14 in 10.0 mi West 9.2 mph - N/A   Clear
12:55 AM 44.6 °F 39.2 °F 28.4 °F 53% 30.14 in 10.0 mi West 10.4 mph - N/A   Clear
1:14 AM 44.6 °F 39.2 °F 28.4 °F 53% 30.14 in 10.0 mi WSW 10.4 mph - N/A   Clear
1:34 AM 44.6 °F 38.8 °F 28.4 °F 53% 30.14 in 10.0 mi West 11.5 mph - N/A   Clear
1:54 AM 46.4 °F 40.1 °F 28.4 °F 50% 30.13 in 10.0 mi West 15.0 mph - N/A   Clear
2:15 AM 48.2 °F - 28.4 °F 46% 30.13 in 10.0 mi West 12.7 mph - N/A   Clear
2:35 AM 46.4 °F 42.4 °F 26.6 °F 46% 30.13 in 10.0 mi North 8.1 mph - N/A   Clear
2:55 AM 46.4 °F 41.5 °F 26.6 °F 46% 30.12 in 10.0 mi North 10.4 mph - N/A   Clear
3:15 AM 44.6 °F 40.2 °F 26.6 °F 49% 30.12 in 10.0 mi North 8.1 mph - N/A   Clear
3:35 AM 44.6 °F - 26.6 °F 49% 30.12 in 10.0 mi Calm Calm - N/A   Clear
3:55 AM 44.6 °F - 26.6 °F 49% 30.12 in 10.0 mi Calm Calm - N/A   Clear
4:15 AM 42.8 °F - 28.4 °F 57% 30.12 in 10.0 mi Calm Calm - N/A   Clear
4:35 AM 42.8 °F - 28.4 °F 57% 30.12 in 10.0 mi Calm Calm - N/A   Clear
4:55 AM 42.8 °F - 28.4 °F 57% 30.12 in 10.0 mi Calm Calm - N/A   Clear
5:15 AM 44.6 °F - 28.4 °F 53% 30.12 in 10.0 mi Calm Calm - N/A   Clear
5:35 AM 42.8 °F 41.1 °F 28.4 °F 57% 30.12 in 10.0 mi SSW 3.5 mph - N/A   Clear
5:49 AM 41.0 °F - 26.6 °F 57% 30.12 in 30.0 mi Calm Calm - N/A   Scattered Clouds
5:55 AM 42.8 °F - 28.4 °F 57% 30.13 in 10.0 mi Calm Calm - N/A   Clear
6:45 AM 44.6 °F - 28.4 °F 53% 30.12 in 50.0 mi Calm Calm - N/A   Scattered Clouds
7:48 AM 42.8 °F - 30.2 °F 61% 30.14 in 60.0 mi Calm Calm - N/A   Scattered Clouds
8:50 AM 48.2 °F - 28.4 °F 46% 30.14 in 60.0 mi Calm Calm - N/A   Scattered Clouds
9:48 AM 55.4 °F - 28.4 °F 36% 30.13 in 40.0 mi East 8.1 mph - N/A   Scattered Clouds
10:47 AM 59.0 °F - 23.0 °F 25% 30.11 in 40.0 mi ESE 5.8 mph - N/A   Scattered Clouds
11:47 AM 59.0 °F - 19.4 °F 22% 30.09 in 40.0 mi North 6.9 mph - N/A   Mostly Cloudy
12:50 PM 66.2 °F - 12.2 °F 12% 30.06 in 40.0 mi SW 17.3 mph 27.6 mph N/A   Mostly Cloudy
1:48 PM 62.6 °F - 12.2 °F 14% 30.05 in 40.0 mi West 8.1 mph - N/A   Mostly Cloudy
2:48 PM 64.4 °F - 12.2 °F 13% 30.04 in 50.0 mi WNW 16.1 mph 25.3 mph N/A   Mostly Cloudy
3:51 PM 66.2 °F - 10.4 °F 11% 30.04 in 50.0 mi NW 18.4 mph 27.6 mph N/A   Mostly Cloudy
4:51 PM 62.6 °F - 17.6 °F 18% 30.05 in 50.0 mi NW 24.2 mph 31.1 mph N/A   Mostly Cloudy
5:45 PM 59.0 °F - 30.2 °F 34% 30.09 in 50.0 mi NNE 17.3 mph 26.5 mph N/A   Mostly Cloudy
6:45 PM 48.2 °F - 35.6 °F 62% 30.15 in 30.0 mi North 19.6 mph 25.3 mph N/A   Mostly Cloudy
7:45 PM 44.6 °F 38.8 °F 35.6 °F 71% 30.19 in 15.0 mi North 11.5 mph - N/A   Mostly Cloudy
8:47 PM 42.8 °F - 35.6 °F 76% 30.21 in 15.0 mi Calm Calm - N/A   Mostly Cloudy
9:47 PM 42.8 °F - 35.6 °F 76% 30.24 in 15.0 mi Calm Calm - N/A   Mostly Cloudy
11:14 PM 37.4 °F 32.8 °F 33.8 °F 87% 30.24 in 10.0 mi West 5.8 mph - N/A   Scattered Clouds
11:35 PM 37.4 °F 33.8 °F 33.8 °F 87% 30.24 in 10.0 mi WSW 4.6 mph - N/A   Clear
11:55 PM 35.6 °F 29.9 °F 32.0 °F 87% 30.22 in 10.0 mi West 6.9 mph - N/A   Clear